OBJECT AP, 67285

Orbit data source: Space-Track

You're viewing an Uncataloged Satellite

Recently launched and/or uncataloged satellites may have evolving metadata. Metadata may include but not limited to: Owner, Maufacturer, Bus, Motor, and Mission.

OBJECT AP, 67285 is a satellite in SSO that was launched on Sun, 28 Dec 2025 UTC via a SOYUZ-2-1B launch vehicle from the Vostochny Cosmodrome (VOSTO). Unknown objects in Earth's orbit typically refer to objects detected orbiting the Earth but have not yet been identified or cataloged. These objects could be anything from previously untracked satellites, spent rocket stages, debris from satellite collisions, or even natural meteoroids temporarily captured by Earth's gravity.

Loading next visibility...
Identifier
67285, 2025-313AP
Orbit
SSO
Country
Flag of TBDTBD
Related business
Flag of BYNational Academy of Sciences of Belarus (BY)
Manufacturer
AN Belarus
Mission
Operational Amateur Imaging
Bus & Motor
CUBESAT 12U, Unknown motor
Mass
~15 kg wet, ~15 kg dry
Launch date (UTC)
2025-12-28 (6 months ago)
Launch vehicle
SOYUZ-2-1B
Launch site
Vostochny Cosmodrome (VOSTO)
Object type
Unknown
Shape & HBR
Box, 0.2 m
Radar Cross Section
0.240 m², Medium (>0.1 m² and < 1m²)

Expand to show TLE details & history
Last TLE update: 9 hours ago

TLE from 9 hours ago
0 OBJECT AP
1 67285U 25313AP  26171.45172122  .00004973  00000-0  20962-3 0  9998
2 67285  97.3915 246.2214 0009753 357.8436   2.2758 15.23738262 26466
Epoch: 2026-06-20T10:50Z
TLE epoch observation values (Epoch: 2026-06-20T10:50:28.713Z)
Latitude
0.00004°
Longitude
174.93561°
Altitude
490.973 km
Speed
7.623 km/s
True Right ascension
16h 24m 53s
True Declination
0° 00' 00"
Sunlit
Object was in full shadow at epoch
Visualization orbit readout
Latitude
Unknown
Longitude
Unknown
Altitude
Unknown
Speed
Unknown
Apparent Right ascension
Unknown
Apparent Declination
Unknown
Sunlit
N/A
Visualization observer readout
Local Sidereal Time
07:12:44
Azimuth
Unknown
Elevation
Unknown
Doppler factor
Unknown
Orbital elements
Apogee altitude
498.237 km
Perigee altitude
484.837 km
Semi-major axis
6,869.674 km
Eccentricity
0.00098
Inclination
97.3915°
RAAN
246.2214°
Arg. of periapsis
357.8436°
True anomaly
2.28024°
Mean anomaly
2.2758°
Eccentric anomaly
2.27802°
Mean motion
3.81188 °/min
Orbital period
94.44 mins
BSTAR
0.00020962
Loading maneuver chart data...
Computing Atmospheric mass density...
Loading historical data...
Loading historical data...
Loading historical data...
Loading historical data...
Loading historical data...
Loading historical data...
Loading historical data...

Documentation

Showing up to 5 results
|